Effective Sunday, March 17, 2024, the National Weather Service National Data Buoy Center will discontinue its Dial-A-Buoy Interactive Voice Response system. For more information, see Service Change Notice 24-06 (PDF).

Station BUZM3 - Buzzards Bay, MA Image indicating link to RSS feed of recent meteorological observations for station BUZM3


Conditions at BUZM3 as of
(6:00 am EST)
1100 GMT on 03/03/2024:
     

Click on the graph icon in the table below to see a time series plot of the last five days of that observation.

5-day plot - Wind Direction Wind Direction (WDIR): SW ( 220 deg true )
5-day plot - Wind Speed Wind Speed (WSPD): 9 kts
5-day plot - Wind Gust Wind Gust (GST): 9 kts
5-day plot - Atmospheric Pressure Atmospheric Pressure (PRES):30.03 in
5-day plot - Pressure Tendency Pressure Tendency (PTDY):+0.00 in ( Steady )
5-day plot - Air Temperature Air Temperature (ATMP): 42.8 °F
5-day plot - Wind Chill Wind Chill (CHILL): 37.0 °F
5-day plot - Wind Speed at 10 Meters Wind Speed at 10 meters (WSPD10M): 8 kts
5-day plot - Wind Speed at 20 Meters Wind Speed at 20 meters (WSPD20M): 10 kts
5-day plot -  Wind Speed, Wind Gust and Atmospheric Pressure Combined plot of Wind Speed, Gust, and Air Pressure
Continuous Winds
TIME
(EST)
5-day plot - Wind Direction WDIR 5-day plot - Wind Speed WSPD
6:00 amSW ( 221 deg ) 9 kts
5:50 amSW ( 214 deg ) 10 kts
5:40 amSSW ( 210 deg ) 10 kts
5:30 amSSW ( 209 deg ) 10 kts
5:20 amSSW ( 208 deg ) 11 kts
5:10 amSSW ( 209 deg ) 12 kts
 
Peak gust during the measurement hour
TIME
(EST)
5-day plot - Gust Direction GDR 5-day plot - Gust Speed GST
5:02 amSSW ( 210 deg ) 13 kts
Previous observations
TIME
(EST)
5-day plot - Wind Direction
WDIR
 
5-day plot - Wind Speed
WSPD
kts
5-day plot - Wind Gust
GST
kts
5-day plot - Wave Height
WVHT
ft
5-day plot - Dominant Wave Period
DPD
sec
5-day plot - Average Wave Period
APD
sec
5-day plot - Mean Wave Direction
MWD
 
5-day plot - Atmospheric Pressure
PRES
in
5-day plot - Pressure Tendency
PTDY
in
5-day plot - Air Temperature
ATMP
°F
5-day plot - Water Temperature
WTMP
°F
5-day plot - Dew Point
DEWP
°F
5-day plot - Salinity
SAL
psu
5-day plot - Visibility
VIS
nmi
5-day plot - Tide (above MLLW)
TIDE
ft
2024-03-03 05:00 amSSW 13 13----30.03+0.00 44.4-----
2024-03-03 04:00 am S 15 15----30.03+0.00 44.1-----
2024-03-03 03:00 am S 18 21----30.03-0.02 45.3-----
2024-03-03 02:00 amSSE 24 26----30.03-0.04 45.5-----
2024-03-03 01:00 amSSE 29 34----30.03-0.06 45.9-----
2024-03-03 12:00 amSSE 28 31----30.05-0.09 45.3-----
2024-03-02 11:00 pm SE 31 37----30.07-0.12 45.0-----
2024-03-02 10:00 pm SE 34 39----30.09-0.16 45.5-----
2024-03-02 09:00 pm SE 31 36----30.14-0.14 44.8-----
2024-03-02 08:00 pm SE 33 36----30.19-0.11 45.1-----
2024-03-02 07:00 pm SE 22 24----30.24-0.07 44.8-----
2024-03-02 06:00 pm SE 20 22----30.28-0.06 43.9-----
2024-03-02 05:00 pm SE 23 24----30.30-0.08 44.2-----
2024-03-02 04:00 pm SE 17 19----30.32-0.08 43.3-----
2024-03-02 03:00 pm SE 14 15----30.34-0.09 43.2-----
2024-03-02 02:00 pm SE 15 16----30.37-0.08 43.2-----
2024-03-02 01:00 pmSSE 13 14----30.40-0.08 42.3-----
2024-03-02 12:00 pmSSE 14 15----30.43-0.06 42.3-----
2024-03-02 11:00 amSSE 17 18----30.45-0.06 42.6-----
2024-03-02 10:00 am SE 14 15----30.47-0.05 41.5-----
2024-03-02 09:00 am SE 14 15----30.50-0.03 40.8-----
2024-03-02 08:00 am SE 13 14----30.51-0.02 40.3-----
2024-03-02 07:00 am SE 14 15----30.52-0.02 39.9-----
2024-03-02 06:00 amSSE 15 16----30.53-0.02 39.7-----